Hourly Weather Bartag

Today, 16 April, Friday

Time Temperature Precipitation Wind Pressure Humidity
00:00 +3°C° 0.2 mm 4 mps 754 mmHg 96%
01:00 +3°C° 0 mm 4 mps 754 mmHg 96%
02:00 +3°C° 0.1 mm 4 mps 753 mmHg 95%
03:00 +3°C° 0.1 mm 4 mps 753 mmHg 95%
04:00 +3°C° 0.1 mm 4 mps 753 mmHg 94%
05:00 +3°C° 0.1 mm 4 mps 753 mmHg 95%
06:00 +3°C° 0.1 mm 4 mps 753 mmHg 95%
07:00 +3°C° 0.1 mm 4 mps 753 mmHg 96%
08:00 +3°C° 0.1 mm 4 mps 753 mmHg 94%
09:00 +4°C° 0.1 mm 4 mps 753 mmHg 92%
10:00 +4°C° 0.1 mm 4 mps 753 mmHg 90%
11:00 +4°C° 0.5 mm 4 mps 753 mmHg 91%
12:00 +4°C° 0.5 mm 4 mps 753 mmHg 93%
13:00 +4°C° 0.5 mm 4 mps 752 mmHg 94%
14:00 +4°C° 0.7 mm 4 mps 752 mmHg 95%
15:00 +4°C° 0.7 mm 4 mps 752 mmHg 95%
16:00 +4°C° 0.7 mm 3 mps 752 mmHg 96%
17:00 +4°C° 0 mm 3 mps 753 mmHg 95%
18:00 +5°C° 0 mm 3 mps 753 mmHg 95%
19:00 +5°C° 0 mm 3 mps 753 mmHg 95%
20:00 +5°C° 0 mm 3 mps 753 mmHg 96%
21:00 +5°C° 0 mm 3 mps 753 mmHg 96%
22:00 +5°C° 0 mm 3 mps 753 mmHg 97%
23:00 +5°C° 0 mm 3 mps 753 mmHg 97%

Tomorrow, 17 April, Saturday

Time Temperature Precipitation Wind Pressure Humidity
00:00 +7°C° 0 mm 3 mps 753 mmHg 97%
01:00 +7°C° 0 mm 3 mps 753 mmHg 97%
02:00 +7°C° 0 mm 3 mps 753 mmHg 97%
03:00 +7°C° 0 mm 3 mps 753 mmHg 97%
04:00 +7°C° 0 mm 3 mps 753 mmHg 97%
05:00 +7°C° 0.3 mm 3 mps 753 mmHg 97%
06:00 +7°C° 0.3 mm 3 mps 754 mmHg 96%
07:00 +8°C° 0.3 mm 2 mps 754 mmHg 96%
08:00 +8°C° 0.1 mm 3 mps 754 mmHg 93%
09:00 +9°C° 0.1 mm 3 mps 754 mmHg 90%
10:00 +9°C° 0.1 mm 3 mps 754 mmHg 88%
11:00 +10°C° 0.1 mm 3 mps 754 mmHg 83%
12:00 +11°C° 0.1 mm 3 mps 754 mmHg 79%
13:00 +11°C° 0.1 mm 3 mps 754 mmHg 75%
14:00 +11°C° 0.1 mm 3 mps 754 mmHg 74%
15:00 +11°C° 0.1 mm 3 mps 754 mmHg 74%
16:00 +12°C° 0.1 mm 4 mps 755 mmHg 73%
17:00 +10°C° 0 mm 3 mps 755 mmHg 78%
18:00 +9°C° 0 mm 3 mps 755 mmHg 83%
19:00 +8°C° 0 mm 2 mps 755 mmHg 88%
20:00 +8°C° 0 mm 2 mps 755 mmHg 90%
21:00 +7°C° 0 mm 2 mps 755 mmHg 92%
22:00 +7°C° 0 mm 2 mps 755 mmHg 94%
23:00 +7°C° 0 mm 2 mps 755 mmHg 95%

Day after tomorrow, 18 April, Sunday

Time Temperature Precipitation Wind Pressure Humidity
00:00 +6°C° 0 mm 2 mps 755 mmHg 95%
01:00 +6°C° 0 mm 2 mps 755 mmHg 95%
02:00 +6°C° 0 mm 2 mps 755 mmHg 95%
03:00 +6°C° 0 mm 2 mps 755 mmHg 95%
04:00 +6°C° 0 mm 2 mps 755 mmHg 96%
05:00 +7°C° 0 mm 2 mps 755 mmHg 93%
06:00 +7°C° 0 mm 2 mps 755 mmHg 90%
07:00 +8°C° 0 mm 3 mps 755 mmHg 87%
08:00 +9°C° 0.2 mm 2 mps 755 mmHg 86%
09:00 +10°C° 0.2 mm 2 mps 755 mmHg 85%
10:00 +10°C° 0.2 mm 2 mps 755 mmHg 83%
11:00 +12°C° 0.2 mm 2 mps 755 mmHg 80%
12:00 +13°C° 0.2 mm 2 mps 755 mmHg 77%
13:00 +14°C° 0.2 mm 2 mps 755 mmHg 74%
14:00 +14°C° 0.4 mm 2 mps 755 mmHg 73%
15:00 +14°C° 0.4 mm 3 mps 755 mmHg 72%
16:00 +14°C° 0.4 mm 3 mps 754 mmHg 70%
17:00 +13°C° 0.2 mm 3 mps 755 mmHg 75%
18:00 +12°C° 0.2 mm 2 mps 755 mmHg 80%
19:00 +10°C° 0.2 mm 2 mps 755 mmHg 85%
20:00 +10°C° 0 mm 2 mps 755 mmHg 86%
21:00 +10°C° 0 mm 2 mps 755 mmHg 88%
22:00 +10°C° 0 mm 3 mps 755 mmHg 89%
23:00 +9°C° 0 mm 2 mps 755 mmHg 90%

19 April, Monday

Time Temperature Precipitation Wind Pressure Humidity
00:00 +9°C° 0 mm 2 mps 755 mmHg 91%
01:00 +8°C° 0 mm 2 mps 755 mmHg 93%
02:00 +7°C° 0 mm 2 mps 755 mmHg 93%
03:00 +6°C° 0 mm 2 mps 755 mmHg 93%
04:00 +6°C° 0 mm 2 mps 755 mmHg 94%
05:00 +7°C° 0 mm 3 mps 755 mmHg 88%
06:00 +8°C° 0 mm 3 mps 755 mmHg 82%
07:00 +8°C° 0 mm 4 mps 755 mmHg 76%
08:00 +10°C° 0 mm 4 mps 755 mmHg 69%
09:00 +10°C° 0 mm 5 mps 755 mmHg 62%
10:00 +13°C° 0 mm 5 mps 755 mmHg 55%
11:00 +12°C° 0 mm 5 mps 755 mmHg 57%
12:00 +12°C° 0 mm 5 mps 754 mmHg 59%
13:00 +12°C° 0 mm 5 mps 754 mmHg 61%
14:00 +11°C° 0 mm 4 mps 754 mmHg 62%
15:00 +11°C° 0 mm 4 mps 754 mmHg 63%
16:00 +11°C° 0 mm 3 mps 754 mmHg 64%
17:00 +10°C° 0 mm 3 mps 754 mmHg 68%
18:00 +10°C° 0 mm 3 mps 753 mmHg 71%
19:00 +9°C° 0 mm 2 mps 753 mmHg 74%
20:00 +8°C° 0 mm 2 mps 753 mmHg 78%
21:00 +7°C° 0 mm 2 mps 753 mmHg 82%
22:00 +7°C° 0 mm 2 mps 753 mmHg 86%
23:00 +6°C° 0 mm 2 mps 753 mmHg 85%

20 April, Tuesday

Time Temperature Precipitation Wind Pressure Humidity
00:00 +6°C° 0 mm 2 mps 753 mmHg 84%
01:00 +6°C° 0 mm 2 mps 752 mmHg 84%
02:00 +6°C° 0 mm 2 mps 752 mmHg 83%
03:00 +6°C° 0 mm 2 mps 752 mmHg 83%
04:00 +6°C° 0 mm 2 mps 752 mmHg 82%
05:00 +6°C° 0 mm 2 mps 751 mmHg 82%
06:00 +7°C° 0 mm 2 mps 751 mmHg 81%
07:00 +7°C° 0 mm 2 mps 751 mmHg 80%
08:00 +8°C° 0.1 mm 3 mps 751 mmHg 75%
09:00 +9°C° 0.1 mm 3 mps 750 mmHg 69%
10:00 +11°C° 0.1 mm 4 mps 750 mmHg 63%
11:00 +11°C° 0.2 mm 4 mps 750 mmHg 61%
12:00 +11°C° 0.2 mm 4 mps 749 mmHg 59%
13:00 +11°C° 0.2 mm 4 mps 749 mmHg 57%
14:00 +11°C° 0.1 mm 4 mps 749 mmHg 59%
15:00 +11°C° 0.1 mm 4 mps 749 mmHg 60%
16:00 +11°C° 0.1 mm 4 mps 748 mmHg 62%
17:00 +10°C° 0.1 mm 3 mps 748 mmHg 69%
18:00 +9°C° 0.1 mm 3 mps 748 mmHg 75%
19:00 +8°C° 0.1 mm 2 mps 748 mmHg 82%
20:00 +7°C° 0 mm 2 mps 748 mmHg 85%
21:00 +6°C° 0 mm 2 mps 748 mmHg 89%
22:00 +5°C° 0 mm 2 mps 748 mmHg 93%
23:00 +5°C° 0 mm 2 mps 748 mmHg 92%

21 April, Wednesday

Time Temperature Precipitation Wind Pressure Humidity
00:00 +5°C° 0 mm 2 mps 748 mmHg 91%
01:00 +5°C° 0 mm 2 mps 748 mmHg 90%
02:00 +5°C° 0 mm 2 mps 748 mmHg 90%
03:00 +5°C° 0 mm 2 mps 747 mmHg 89%
04:00 +4°C° 0 mm 3 mps 747 mmHg 89%
05:00 +5°C° 0 mm 3 mps 747 mmHg 87%
06:00 +5°C° 0 mm 3 mps 747 mmHg 86%
07:00 +5°C° 0 mm 3 mps 747 mmHg 84%
08:00 +7°C° 0.1 mm 3 mps 747 mmHg 78%
09:00 +8°C° 0.1 mm 3 mps 747 mmHg 72%
10:00 +8°C° 0.1 mm 4 mps 747 mmHg 66%
11:00 +8°C° 0.1 mm 4 mps 747 mmHg 62%
12:00 +10°C° 0.1 mm 4 mps 747 mmHg 58%
13:00 +11°C° 0.1 mm 4 mps 747 mmHg 54%
14:00 +11°C° 0 mm 4 mps 747 mmHg 55%
15:00 +11°C° 0 mm 4 mps 747 mmHg 56%
16:00 +11°C° 0 mm 3 mps 747 mmHg 57%
17:00 +9°C° 0 mm 3 mps 747 mmHg 63%
18:00 +8°C° 0 mm 2 mps 748 mmHg 69%
19:00 +7°C° 0 mm 1 mps 748 mmHg 76%
20:00 +6°C° 0 mm 1 mps 748 mmHg 77%
21:00 +6°C° 0 mm 1 mps 748 mmHg 77%
22:00 +5°C° 0 mm 1 mps 748 mmHg 78%
23:00 +5°C° 0 mm 1 mps 748 mmHg 80%
Show more